User: anonymous   Login
Location: Chagrin Falls Park
(41.4139°N, 81.3865°W)
Time: 03:25:07
(UTC+00:00)
Language:

STARLINK-2715 - Orbit

View from above orbital plane
View from above orbital plane
View from above satellite
View from above satellite

Ground track
Ground track

The orbit data is extracted from the following two-line orbital elements,

1 48697C 21044BM  21293.81742407  .00006805  00000-0  45590-3 0  2937
2 48697  53.0545  78.2032 0002090  93.4456  58.0502 15.06392333    18
Epoch (UTC): 20 October 2021 19:37:05
Eccentricity: 0.0002090
inclination: 53.0545°
perigee height: 546 km
apogee height: 548 km
right ascension of ascending node: 78.2032°
argument of perigee: 93.4456°
revolutions per day: 15.06392333
mean anomaly at epoch: 58.0502°
orbit number at epoch: 1

The dashed part of the orbit path shows where the satellite is in the earth's shadow,  

DLR